LKW-1 (43034 NORAD) Tracking and Keplerian Element Data

This shows tracking and keplerian element data for the satellite.

Feedback or suggestion? Click here.




ElementValue
Catalog43034
NameLKW-1
Epoch Orbit39887
Epoch Day35.1806057
Epoch Year2025
RAAN88.8943
Inclination97.1698
Eccentricity0.0001593
Argument of Perigee253.6168
Mean Anonmoly106.4895
Mean Motion15.23119354
Decay Rate0.00010288
L11 43034U 17077A 25035.18060570 .00010288 00000+0 43856-3 0 9995
L22 43034 97.1698 88.8943 0001593 253.6168 106.4895 15.23119354398877



Live tracking and technical data element details for LKW-1 (NORAD 43034). LKW-1 can be tracked NOW for your location showing map with azimuth and elevation plus other details from your city location.







IsCatalogInMostPopularTable: catalog: 43034, numindb: 647
Update: records affected: 1



GetName: 43034 LKW-1

Hit Count: updated at: Sat, 17 May 2025 09:29:53 GMT